Weather History for Flint, MI

Change the Weather History Date:

Saturday, August 31, 2013

  Actual Average Record
Temperature  
Mean Temperature 73 °F 66 °F  
Max Temperature 80 °F 78 °F 97 °F (1953)
Min Temperature 65 °F 55 °F 39 °F (1931)
Degree Days  
Heating Degree Days 0 2  
Month to date heating degree days 13 33  
Since 1 June heating degree days 63 110  
Since 1 July heating degree days 22 44  
Cooling Degree Days 8 3  
Month to date cooling degree days 168 146  
Year to date cooling degree days 670 477  
Since 1 June cooling degree days 591 445  
Growing Degree Days 24 (Base 50)    
Moisture  
Dew Point 65 °F    
Average Humidity 73    
Maximum Humidity 90    
Minimum Humidity 56    
Precipitation  
Precipitation 0.00 in 0.11 in 1.50 in (1945)
Month to date precipitation 2.58 3.18  
Year to date precipitation 25.59 20.56  
Snow  
Snow 0.00 in 0.00 in 0.00 in ()
Month to date snowfall 0.0 0.0  
Since 1 June snowfall 0.0 0.0  
Since 1 July snowfall 0.0 0.0  
Snow Depth 0.00 in    
Sea Level Pressure  
Sea Level Pressure 29.83 in    
Wind  
Wind Speed 7 mph (NNE)    
Max Wind Speed 13 mph    
Max Gust Speed 15 mph    
Visibility 10 miles    
Events      
T = Trace of Precipitation, MM = Missing Value Source: NWS Daily Summary

Daily Weather History Graph

Daily Weather History Graph

Search for Another Location

Airport:

Trip Planner

Search our weather history database for the weather conditions in past years. The results will help you decide how hot, cold, wet, or windy it might be!

Date:

Astronomy

Aug. 31, 2013 Rise Set
Actual Time 6:58 AM EDT 8:10 PM EDT
Civil Twilight 6:29 AM EDT 8:40 PM EDT
Nautical Twilight 5:54 AM EDT 9:15 PM EDT
Astronomical Twilight 5:17 AM EDT 9:51 PM EDT
Moon 2:22 AM EDT (8/31) 5:12 PM EDT (8/31)
Length of Visible Light 14h 10m
Length of Day
13h 12m
Waning Crescent, 21% of the Moon is Illuminated
Aug 31
Waning Crescent
Sep 5
New
Sep 12
First Quarter
Sep 19
Full
Sep 26
Last Quarter

Hourly Weather History & Observations

Time (EDT) Temp. Dew Point Humidity Pressure Visibility Wind Dir Wind Speed Gust Speed Precip Events Conditions
12:53 AM 75.9 °F 70.0 °F 82% 29.78 in 10.0 mi NNW 10.4 mph - 0.00 in   Overcast
1:53 AM 73.9 °F 66.9 °F 79% 29.77 in 10.0 mi North 9.2 mph - N/A   Overcast
2:53 AM 73.0 °F 66.9 °F 81% 29.78 in 10.0 mi NNW 8.1 mph - N/A   Overcast
3:44 AM 71.6 °F 66.2 °F 83% 29.80 in 10.0 mi North 4.6 mph - N/A   Overcast
3:53 AM 72.0 °F 66.9 °F 84% 29.80 in 10.0 mi North 4.6 mph - N/A   Overcast
4:43 AM 71.6 °F 66.2 °F 83% 29.82 in 10.0 mi NNW 5.8 mph - N/A   Overcast
4:53 AM 72.0 °F 66.9 °F 84% 29.80 in 10.0 mi North 6.9 mph - N/A   Overcast
5:07 AM 71.6 °F 66.2 °F 83% 29.81 in 10.0 mi North 5.8 mph - N/A   Overcast
5:18 AM 71.6 °F 66.2 °F 83% 29.81 in 10.0 mi North 8.1 mph - N/A   Overcast
5:25 AM 71.6 °F 66.2 °F 83% 29.81 in 10.0 mi North 5.8 mph - N/A   Overcast
5:53 AM 70.0 °F 66.0 °F 87% 29.79 in 10.0 mi North 3.5 mph - N/A   Overcast
6:53 AM 70.0 °F 66.0 °F 87% 29.81 in 10.0 mi North 6.9 mph - N/A   Overcast
7:06 AM 69.8 °F 66.2 °F 88% 29.83 in 10.0 mi NNW 5.8 mph - N/A   Overcast
7:24 AM 71.6 °F 66.2 °F 83% 29.84 in 10.0 mi North 5.8 mph - N/A   Overcast
7:36 AM 71.6 °F 66.2 °F 83% 29.84 in 10.0 mi North 4.6 mph - N/A   Overcast
7:51 AM 71.6 °F 66.2 °F 83% 29.84 in 10.0 mi North 5.8 mph - N/A   Overcast
7:53 AM 71.1 °F 66.0 °F 84% 29.83 in 10.0 mi North 4.6 mph - N/A   Overcast
8:22 AM 71.6 °F 64.4 °F 78% 29.85 in 10.0 mi North 5.8 mph - N/A   Overcast
8:53 AM 72.0 °F 64.9 °F 78% 29.84 in 10.0 mi North 8.1 mph - N/A   Overcast
9:53 AM 73.0 °F 66.0 °F 79% 29.86 in 10.0 mi NE 10.4 mph - N/A   Overcast
10:53 AM 73.0 °F 64.0 °F 73% 29.87 in 10.0 mi NE 8.1 mph - N/A   Overcast
11:32 AM 75.2 °F 64.4 °F 69% 29.86 in 10.0 mi NE 8.1 mph - N/A   Overcast
11:53 AM 75.9 °F 64.9 °F 69% 29.85 in 10.0 mi East 5.8 mph - N/A   Overcast
12:53 PM 77.0 °F 64.0 °F 64% 29.85 in 10.0 mi NE 5.8 mph - N/A   Overcast
1:53 PM 77.0 °F 63.0 °F 62% 29.85 in 10.0 mi North 5.8 mph - N/A   Overcast
2:53 PM 77.0 °F 64.0 °F 64% 29.86 in 10.0 mi NE 6.9 mph - N/A   Overcast
3:03 PM 77.0 °F 64.4 °F 65% 29.87 in 10.0 mi North 6.9 mph - N/A   Overcast
3:22 PM 78.8 °F 64.4 °F 61% 29.87 in 10.0 mi NNW 5.8 mph - N/A   Overcast
3:53 PM 79.0 °F 64.9 °F 62% 29.85 in 10.0 mi NNE 10.4 mph - N/A   Overcast
4:53 PM 79.0 °F 62.1 °F 56% 29.83 in 10.0 mi North 9.2 mph - N/A   Clear
5:53 PM 79.0 °F 62.1 °F 56% 29.83 in 10.0 mi North 10.4 mph - N/A   Scattered Clouds
6:53 PM 77.0 °F 61.0 °F 58% 29.82 in 10.0 mi North 8.1 mph - N/A   Clear
7:53 PM 73.9 °F 63.0 °F 68% 29.82 in 10.0 mi NE 10.4 mph - N/A   Mostly Cloudy
8:53 PM 72.0 °F 63.0 °F 73% 29.83 in 10.0 mi ENE 6.9 mph - N/A   Clear
9:53 PM 69.1 °F 63.0 °F 81% 29.85 in 10.0 mi ENE 4.6 mph - N/A   Scattered Clouds
10:53 PM 68.0 °F 63.0 °F 84% 29.84 in 9.0 mi East 4.6 mph - N/A   Clear
11:53 PM 66.0 °F 62.1 °F 87% 29.86 in 8.0 mi East 3.5 mph - N/A   Clear